Location: S�tio Afonso Gruber
(26.1760°S, 49.5250°W)
Time: 00:39:49
(UTC+00:00)

Intelsat 5-3 Rocket - Pass Details

Date: 06 October 2020
Orbit: 281 x 6111 km, 23.6° (Epoch: 22 October)

Event Time Altitude Azimuth Distance (km) Brightness Sun altitude
Exits shadow 06:01:55 50° 283° (WNW) 5,229 6.6 -37.1°
Maximum altitude 06:13:16 68° 341° (NNW) 5,631 7.0 -34.8°
Drops below altitude 10° 06:54:57 10° 56° (NE) 9,090 8.9 -26.3°
Sets 07:01:46 0° 59° (ENE) 9,635 9.1 -24.9°
